Tracking 20083 objects as of 12-Dec-2019
HD Live streaming from Space Station
objects crossing your sky now

COSMOS 2251 DEB

Track COSMOS 2251 DEB now!
10-day predictions


NORAD ID: 40238
Int'l Code: 1993-036BVT
Perigee: 761.2 km
Apogee: 1,638.1 km
Inclination: 74.0 °
Period: 109.3 minutes
Semi major axis: 7570 km
RCS: Unknown
Launch date: June 16, 1993
Source: Commonwealth of Independent States (former USSR) (CIS)
Launch site: PLESETSK MISSILE AND SPACE COMPLEX (PKMTR)

Note: This is SATELLITE DEBRIS
aabbcc
Your satellite tracking list
Your tracking list is empty




NASA's NSSDC Master Catalog

Two Line Element Set (TLE):
1 40238U 93036BVT 19345.19846140  .00000385  00000-0  43485-3 0  9996
2 40238  73.9919 164.4263 0579195 196.1549 162.0376 13.17965935439318
Source of the keplerian elements: AFSPC